This is the latest recevied weather packets stored in our database for station/object KE5WTH-14. If no packets are shown the sender has not sent any weather packets the latest 10 day(s).
| Time | Temp. | Humidity | Pressure | Rain* | Wind** | Luminosity | Snow |
|---|---|---|---|---|---|---|---|
| 1778275712 | 26.11° C | 67% | 1008.3 hPa | 0 mm | - | 707 W/m² | - |
| 1778275651 | 26.11° C | 65% | 1008.3 hPa | 0 mm | - | 707 W/m² | - |
| 1778275592 | 26.11° C | 65% | 1008.3 hPa | 0 mm | - | 721 W/m² | - |
| 1778275532 | 26.11° C | 64% | 1008.4 hPa | 0 mm | - | 730 W/m² | - |
| 1778275473 | 26.11° C | 64% | 1008.4 hPa | 0 mm | - | 717 W/m² | - |
| 1778275411 | 26.11° C | 66% | 1008.3 hPa | 0 mm | - | 763 W/m² | - |
| 1778275351 | 26.11° C | 65% | 1008.3 hPa | 0 mm | - | 797 W/m² | - |
| 1778275292 | 26.11° C | 64% | 1008.4 hPa | 0 mm | - | 832 W/m² | - |
| 1778275232 | 26.11° C | 65% | 1008.5 hPa | 0 mm | - | 716 W/m² | - |
| 1778275174 | 26.11° C | 62% | 1008.5 hPa | 0 mm | - | 677 W/m² | - |
| 1778275110 | 26.11° C | 65% | 1008.5 hPa | 0 mm | - | 572 W/m² | - |
| 1778275050 | 26.11° C | 66% | 1008.7 hPa | 0 mm | - | 571 W/m² | - |
| 1778274988 | 26.11° C | 64% | 1008.8 hPa | 0 mm | - | 763 W/m² | - |
| 1778274925 | 26.11° C | 65% | 1008.7 hPa | 0 mm | - | 749 W/m² | - |
| 1778274863 | 26.11° C | 66% | 1008.8 hPa | 0 mm | - | 756 W/m² | - |
| 1778274785 | 25.56° C | 65% | 1008.8 hPa | 0 mm | - | 763 W/m² | - |
| 1778274726 | 25.56° C | 64% | 1008.9 hPa | 0 mm | - | 756 W/m² | - |
| 1778274665 | 25.56° C | 65% | 1008.9 hPa | 0 mm | - | 756 W/m² | - |
| 1778274604 | 25.56° C | 65% | 1008.9 hPa | 0 mm | - | 754 W/m² | - |
| 1778274545 | 25.56° C | 65% | 1009 hPa | 0 mm | - | 761 W/m² | - |
| 1778274484 | 25.56° C | 65% | 1009 hPa | 0 mm | - | 763 W/m² | - |
| 1778274422 | 25.56° C | 65% | 1009 hPa | 0 mm | - | 760 W/m² | - |
| 1778274363 | 25.56° C | 64% | 1009 hPa | 0 mm | - | 760 W/m² | - |
| 1778274303 | 25.56° C | 65% | 1009 hPa | 0 mm | - | 763 W/m² | - |
| 1778274243 | 25.56° C | 65% | 1009.1 hPa | 0 mm | - | 770 W/m² | - |
* Rain latest hour (hover to see other rain measurements)
** Current wind speed in m/s (hover to see current wind gust speed)